Regional Weather Roundup
Issued by NWS

Home | Current Version | Previous Version | Text Only | Print | Product List | Glossary On
Versions: 1 2 3 4 5 6 7 8 9 10 11 12 13 14 15 16 17 18 19 20 21 22 23 24 25 26 27 28 29 30 31 32 33 34 35 36 37 38 39 40 41 42 43 44 45 46 47 48 49 50
000
ASUS44 KFWD 240815
RWRTX
NORTH TEXAS HOURLY WEATHER ROUNDUP
NATIONAL WEATHER SERVICE FORT WORTH TX
200 AM CST SAT FEB 24 2018

NOTE: "FAIR" INDICATES FEW OR NO CLOUDS BELOW 12,000 FEET WITH NO
SIGNIFICANT WEATHER AND/OR OBSTRUCTIONS TO VISIBILITY.

TXZ118-119-240900-
DALLAS/FORT WORTH METROPLEX

CITY           SKY/WX    TMP DP  RH WIND       PRES   REMARKS
DFW AIRPORT    DRIZZLE   48  46  93 N3        29.97F FOG
DALLAS LOVE    CLOUDY    47  46  97 CALM      29.99F FOG
FTW MEACHAM    CLOUDY    46  45  96 CALM      29.98F FOG
DAL-EXECUTIVE  FOG       46  46 100 NW3       29.97F VSB 1/2
FTW-ALLIANCE   DRIZZLE   45  44  97 N3        29.98F FOG
FTW-NAS-JRB    CLOUDY    45  42  89 NW3       29.99F FOG
FTW-SPINKS     CLOUDY    45  44  96 CALM      30.00F FOG
ARLINGTON      CLOUDY    44  44 100 CALM      29.98F FOG
GRAND PRAIRIE  CLOUDY    45  45 100 CALM      30.00F
ADDISON        CLOUDY    46  45  98 CALM      30.00F FOG
MESQUITE       CLOUDY    49  48  97 NW6       29.99S
LANCASTER      CLOUDY    48  47  99 NW6       30.00F FOG
$$

TXZ091>094-102>105-117-120-121-131>134-240900-
NORTH CENTRAL TEXAS

CITY           SKY/WX    TMP DP  RH WIND       PRES   REMARKS
SHRMAN/DENISON CLOUDY    45  45  99 NW3       30.00S FOG
GAINESVILLE    CLOUDY    42  41  97 CALM      29.99F FOG
BOWIE          CLOUDY    40  40  99 CALM      29.98F
BRIDGEPORT     DRIZZLE   41  41 100 CALM      30.00F
DECATUR        CLOUDY    41  41  99 CALM      29.96F FOG
DENTON         CLOUDY    45  45 100 CALM      29.99F
MCKINNEY       CLOUDY    47  47 100 CALM      29.99F FOG
BONHAM         CLOUDY    45  45  99 CALM      29.99S
GREENVILLE     FOG       54  54 100 CALM      29.99S VSB 1
ROCKWALL       FOG       48  48 100 NW5       30.00S VSB 1
TERRELL        FOG       52  51  97 NW3       29.99F VSB 3/4
WAXAHACHIE     FOG       46  46 100 NW3       29.99F VSB 1/2
CLEBURNE       FOG       45  45 100 CALM      30.00F VSB 1/2
GRANBURY       FOG       43  42  95 CALM      30.01F VSB 1
$$

TXZ083>090-098>101-113>116-127>130-139>142-154-155-240900-
WESTERN NORTH TEXAS

CITY           SKY/WX    TMP DP  RH WIND       PRES   REMARKS
WICHITA FALLS  CLOUDY    38  37  97 E6        29.96F FOG     WCI  33
WF-KICKAPOO    FOG       38  38  99 NE3       29.99F VSB 3/4
VERNON         CLOUDY    40  37  90 E3        29.97S
ABILENE        CLOUDY    41  41 100 E8        29.93F FOG     WCI  36
ABILENE-DYESS  CLOUDY    43  43 100 E7        29.91F FOG     WCI  39
GRAHAM           N/A     38  32  78 CALM      29.97S
BRECKENRIDGE   CLOUDY    40  40 100 E3        29.97F FOG
CISCO          FOG       39  39 100 CALM      29.97F VSB<1/4
EASTLAND       FOG       40  40  99 CALM      29.96F VSB 1/2
RANGER         FOG       40  40 100 CALM      29.96F VSB 3/4
MINERAL WELLS  CLOUDY    41  40  96 CALM      29.98F FOG
STEPHENVILLE   CLOUDY    43  41  94 CALM      30.00F VSB 1/2
COMANCHE       FOG       43  43 100 CALM      29.97F VSB 1/2
BROWNWOOD      FOG       46  46 100 CALM      29.96F VSB 1/2
COLEMAN        FOG       45  44  97 NE3       29.93F VSB 1/4
$$

TXZ143>147-156>162-174-175-240900-
CENTRAL TEXAS

CITY           SKY/WX    TMP DP  RH WIND       PRES   REMARKS
WACO           CLOUDY    49  48  97 N5        29.98S FOG
WACO-MCGREGOR  FOG       51  51 100 N6        29.98S VSB 1
HILLSBORO      FOG       49  49 100 N6        29.98F VSB 1/2
CORSICANA      CLOUDY    55  55 100 CALM      29.98F FOG
MEXIA          CLOUDY    61  60  97 S12       29.97F
HEARNE         CLOUDY    63  63 100 SE3       29.99F
CAMERON        CLOUDY    66  65  96 S8        29.96F
TEMPLE         CLOUDY    56  56 100 NW3       29.98S FOG
KILLEEN        FOG       55  55 100 CALM      29.95F VSB 1/4
KILLEEN-SKYLRK FOG       58  57  97 SE5       29.97S VSB 3/4
GATESVILLE     FOG       52  52 100 CALM      29.99F VSB 1/2
HAMILTON       FOG       46  46 100 N3        29.98F VSB 3/4
LAMPASAS       FOG       56  56 100 CALM      29.95F VSB 1/4
$$

TXZ095>097-106>112-122>126-135>138-148>153-164>167-240900-
EAST TEXAS

CITY           SKY/WX    TMP DP  RH WIND       PRES   REMARKS
PARIS          FOG       52  52 100 NW7       29.98F VSB 1/2
SULPHUR SPRNGS FOG       55  55 100 CALM      29.99F VSB 1/4
MOUNT PLEASANT FAIR      64  63  97 S14       29.98F
GILMER         CLOUDY    64  64  99 S8        29.99F
MINEOLA        CLOUDY    64  64 100 S8G21     29.96F
TYLER          CLOUDY    66  65  96 S13       29.98F
LONGVIEW       CLOUDY    67  67 100 S8        29.99F
MARSHALL       CLOUDY    65  63  92 CALM      30.02F
ATHENS         CLOUDY    63  63 100 S9        29.96F
PALESTINE      DRIZZLE   67  67 100 SE6       30.00F
JACKSONVILLE   FOG       65  65 100 S8        30.02F VSB 3/4
CENTER         CLOUDY    68  66  93 S5        30.02F
NACOGDOCHES    CLOUDY    68  67  96 S5        30.01F
LUFKIN         CLOUDY    67  66  97 SE5       30.00F
$$

SUPPLEMENTAL OBSERVATIONS (NWS FORT WORTH AREA)

CITY           SKY/WX    TMP DP  RH WIND       PRES   REMARKS
DENISON DAM      N/A     45  43  93 NW8         N/A
CADDO GRASSLND   N/A     46  45  93 W2          N/A
PAT MAYSE LAKE   N/A     48  48 100 NW3         N/A
GREENVILLE       N/A     52  50  93 NW3         N/A
CEDAR HILL       N/A     46  45  93 CALM        N/A
LBJ GRASSLAND    N/A     41  39  93 W1          N/A
POSSUM KINGDOM   N/A     39  37  93 E1          N/A
GRANBURY         N/A     43  41  93 W1          N/A
COMANCHE         N/A     43  41  93 CALM        N/A
MCGREGOR         N/A     54  52  94 NE5         N/A
TEMPLE           N/A     61  59  94 SE3         N/A
LAKE LIMESTONE   N/A     64  63  94 S6          N/A
ATHENS           N/A     66  63  88 S10G21      N/A
$$

SUPPLEMENTAL OBSERVATIONS (NWS NORMAN AREA)

CITY           SKY/WX    TMP DP  RH WIND       PRES   REMARKS
GOODLETT         N/A     38  37  97 NE5       29.96S WCI  34
ODELL            N/A     38  38 100 NE3       29.97F
CROWELL          N/A     38  38 100 SE6       29.98R WCI  34
KNOX CITY        N/A     38  36  93 NE2       29.97F
SEYMOUR          N/A     37  37  99 NE2       29.96F
$$

SUPPLEMENTAL OBSERVATIONS (NWS SAN ANGELO AREA)

CITY           SKY/WX    TMP DP  RH WIND       PRES   REMARKS
WEINERT          N/A     37  36  96 E2        29.97F
HASKELL          N/A     37  37  99 NE3       29.96S
THROCKMORTON     N/A     38  38 100 SE3       29.97F
STAMFORD         N/A     39  39 100 E5        29.96F WCI  35
CLYDE            N/A     40  40 100 E8        29.93F WCI  35
HAMBY            N/A     41  37  87 E3          N/A
IVIE RESERVOIR   N/A     46  45  93 E7G16       N/A
COLORADO BEND    N/A    N/A N/A N/A SE9         N/A
$$

SUPPLEMENTAL OBSERVATIONS (NWS SHREVEPORT AREA)

CITY           SKY/WX    TMP DP  RH WIND       PRES   REMARKS
CLARKSVILLE      N/A     61  59  94 S1          N/A
TEXARKANA        N/A    N/A N/A N/A S5          N/A
LINDEN           N/A     64  61  88 S3          N/A
CADDO LAKE       N/A    N/A N/A N/A S1          N/A
GILMER           N/A     64  63  94 S7          N/A
HENDERSON        N/A     68  64  88 S8          N/A
LUFKIN           N/A     66  64  94 MISG        N/A
N SABINE NF      N/A     70  68  94 MISG        N/A
S SABINE NF      N/A     70  64  83 SW2         N/A
$$

SUPPLEMENTAL OBSERVATIONS ARE A COLLECTION OF AUTOMATED INSTRUMENTS
THAT ARE MAINTAINED BY A VARIETY OF FEDERAL AND STATE AGENCIES.
CERTAIN ELEMENTS...SUCH AS HUMIDITY VALUES AND SUSTAINED WIND
SPEEDS...MAY BE APPROXIMATED.





USA.gov is the U.S. government's official web portal to all federal, state and local government web resources and services.